Погода в Печенкино

Россия / Челябинская область     54°50′33″N   61°38′16″E
темп.,
°C
ветер,
м/с
пор.,
м/с
влажн.,
%
обл.,
%
осадки,
мм/ч
давл.,
гПа
погр.,
м
17 июня, чт
чт1723:00+20зюз226492 0.9 101221
02:00+18зюз4671100 0.0 101281
05:00+17ююз2275100 0.0 101140
08:00+21ю3462100 0.1 1009196
11:00+27юз4645100 0.1 1007725
14:00+28зюз5741100 0.0 10051291
17:00+28сз6645100 0.1 10041559
20:00+17з2392100 4.4 1006116
18 июня, пт
пт1823:00+17ссз713914 4.8 1007491
02:00+14ссз613891 0.0 1008396
05:00+14ссз61380100 0.0 1010508
08:00+14ссз7116887 0.0 1011721
11:00+16с9115960 0.0 10131378
14:00+16с9114911 0.3 10151816
17:00+18с811395 0.3 10162415
20:00+15с48525 0.0 1018283
19 июня, сб
сб1923:00+12сз335499 0.0 101937
02:00+10зсз47605 0.0 1020115
05:00+9сз511675 0.0 1020207
08:00+14сз7115588 0.0 1020533
11:00+15сз71160100 0.0 10211165
14:00+14зсз4106893 0.0 1020750
17:00+16сз7116173 0.0 1018867
20:00+16з3769100 0.0 1017227
20 июня, вс
вс2023:00+14сз61394100 1.8 1017565
02:00+14з41198100 0.9 1014320
05:00+14зсз3997100 1.2 1014238
08:00+17сз4892100 0.4 1013390
11:00+22сз81075100 0.6 10121029
14:00+24ссз813647 1.1 10111633
17:00+26ссз7124985 1.1 10112540
20:00+21ссз410590 0.0 1013248
21 июня, пн
пн2123:00+16ссз412670 0.0 1015269
02:00+12ссз46640 0.0 101797
05:00+11сз35650 0.0 101879
08:00+17ссз47550 0.0 1019396
11:00+21ссз57415 0.0 10191295
14:00+24сз46425 0.0 10171345
17:00+26зсз49445 0.0 10161957
20:00+23з486713 0.0 1014188